GW3478 Weather Reports


Display with metric or nautical units.
time (UTC)temp
F
wind
direction
speed
MPH
gust
MPH
rain 1hr
in
rain 24hr
in
rain mn
in
humidity
%
barometer
mb
20260504081551 49 40 8.0 18.0 0.00 0.00 0.00 51 1015.1
20260504044536 57 42 3.0 8.0 0.00 0.00 0.00 36 1009.6
20260504043049 58 52 3.0 8.0 0.00 0.00 0.00 36 1009.1
20260504041540 58 37 4.0 9.0 0.00 0.00 0.00 35 1008.6
20260504040045 59 34 5.0 11.0 0.00 0.00 0.00 33 1008.5
20260504034541 60 45 5.0 11.0 0.00 0.00 0.00 33 1008.3
20260504033039 61 40 4.0 14.0 0.00 0.00 0.00 33 1007.9
20260504031546 61 54 4.0 11.0 0.00 0.00 0.00 30 1007.4
20260504030040 62 58 1.0 5.0 0.00 0.00 0.00 27 1007.2
20260504024544 63 37 4.0 8.0 0.00 0.00 0.00 23 1007.1
20260504023038 65 22 0.0 2.0 0.00 0.00 0.00 21 1006.9
20260504021544 67 28 1.0 5.0 0.00 0.00 0.00 19 1007.0
20260504020045 69 30 2.0 10.0 0.00 0.00 0.00 19 1007.0
20260504014545 71 0 1.0 4.0 0.00 0.00 0.00 18 1006.9
20260504013040 73 22 3.0 8.0 0.00 0.00 0.00 17 1006.9
20260504011538 74 344 7.0 14.0 0.00 0.00 0.00 17 1007.0
20260504010037 74 27 3.0 13.0 0.00 0.00 0.00 17 1007.0
20260504004544 75 336 8.0 18.0 0.00 0.00 0.00 16 1007.0
20260504003051 75 311 14.0 21.0 0.00 0.00 0.00 16 1007.2
20260504001545 75 345 9.0 19.0 0.00 0.00 0.00 15 1007.4
20260504000111 75 349 12.0 19.0 0.00 0.00 0.00 15 1007.4
20260503234550 75 315 10.0 17.0 0.00 0.00 0.00 15 1007.4
20260503233044 75 335 10.0 20.0 0.00 0.00 0.00 16 1007.5
20260503231537 74 303 8.0 17.0 0.00 0.00 0.00 16 1007.8
20260503230037 74 309 16.0 29.0 0.00 0.00 0.00 16 1007.9
20260503224544 74 274 11.0 27.0 0.00 0.00 0.00 16 1008.2
20260503223041 74 293 11.0 25.0 0.00 0.00 0.00 16 1008.3
20260503221549 74 336 12.0 24.0 0.00 0.00 0.00 17 1008.5
20260503220038 74 293 10.0 22.0 0.00 0.00 0.00 17 1008.6
20260503214542 73 266 19.0 30.0 0.00 0.00 0.00 16 1008.7
20260503213045 72 304 15.0 27.0 0.00 0.00 0.00 16 1009.1
20260503211544 73 271 14.0 24.0 0.00 0.00 0.00 15 1009.2
20260503210039 72 289 11.0 25.0 0.00 0.00 0.00 17 1009.4
20260503204538 72 302 12.0 25.0 0.00 0.00 0.00 17 1009.7
20260503203056 71 322 12.0 28.0 0.00 0.00 0.00 17 1009.9
20260503201539 71 323 13.0 23.0 0.00 0.00 0.00 18 1010.0
20260503200037 71 284 17.0 33.0 0.00 0.00 0.00 18 1010.2
20260503194550 70 269 9.0 31.0 0.00 0.00 0.00 18 1010.4
20260503193041 71 315 16.0 27.0 0.00 0.00 0.00 17 1010.6
20260503191541 71 307 15.0 25.0 0.00 0.00 0.00 18 1010.9
20260503190040 70 238 11.0 30.0 0.00 0.00 0.00 18 1011.0
20260503184537 70 276 15.0 28.0 0.00 0.00 0.00 18 1011.1
20260503183037 70 241 11.0 20.0 0.00 0.00 0.00 19 1011.3
20260503181556 69 248 11.0 23.0 0.00 0.00 0.00 21 1011.5
20260503180043 69 303 10.0 18.0 0.00 0.00 0.00 23 1011.8
20260503174540 68 282 14.0 19.0 0.00 0.00 0.00 24 1012.0
20260503173051 67 324 11.0 16.0 0.00 0.00 0.00 26 1012.2
20260503171540 65 280 7.0 16.0 0.00 0.00 0.00 33 1012.2